Weather History for El Centro, CA

Change the Weather History Date:

Thursday, November 22, 2012

  Actual Average Record
Temperature  
Mean Temperature 64 °F -  
Max Temperature 81 °F 72 °F 82 °F (2002)
Min Temperature 48 °F 49 °F 41 °F (2004)
Growing Degree Days 14 (Base 50)    
Moisture  
Dew Point 36 °F    
Average Humidity 40    
Maximum Humidity 59    
Minimum Humidity 20    
Precipitation  
Precipitation 0.00 in - - ()
Sea Level Pressure  
Sea Level Pressure 30.09 in    
Wind  
Wind Speed 4 mph (West)    
Max Wind Speed 8 mph    
Max Gust Speed -    
Visibility 10 miles    
Events      
Averages and records for this station are not official NWS values.
T = Trace of Precipitation, MM = Missing Value Source: NWS Daily Summary

Daily Weather History Graph

Daily Weather History Graph

Search for Another Location

Airport:

Trip Planner

Search our weather history database for the weather conditions in past years. The results will help you decide how hot, cold, wet, or windy it might be!

Date:

Astronomy

Nov. 22, 2012 Rise Set
Actual Time 6:19 AM PST 4:37 PM PST
Civil Twilight 5:53 AM PST 5:04 PM PST
Nautical Twilight 5:23 AM PST 5:34 PM PST
Astronomical Twilight 4:53 AM PST 6:04 PM PST
Moon 1:11 PM PST (11/22) 12:59 AM PST (11/22)
Length of Visible Light 11h 11m
Length of Day
10h 18m
Waxing Gibbous, 72% of the Moon is Illuminated
Nov 22
Waxing Gibbous
Nov 28
Full
Dec 6
Last Quarter
Dec 13
New
Dec 19
First Quarter

Hourly Weather History & Observations

Time (PST) Temp. Dew Point Humidity Pressure Visibility Wind Dir Wind Speed Gust Speed Precip Events Conditions
12:56 AM 50.0 °F 32.0 °F 50% 30.02 in 10.0 mi WNW 5.8 mph - N/A   Clear
1:56 AM 50.0 °F 34.0 °F 54% 30.03 in 10.0 mi West 3.5 mph - N/A   Clear
2:56 AM 48.9 °F 35.1 °F 59% 30.03 in 10.0 mi SSW 3.5 mph - N/A   Clear
3:56 AM 50.0 °F 35.1 °F 57% 30.03 in 10.0 mi SW 5.8 mph - N/A   Clear
4:56 AM 48.9 °F 35.1 °F 59% 30.04 in 10.0 mi SSW 4.6 mph - N/A   Clear
5:56 AM 48.0 °F 34.0 °F 58% 30.06 in 10.0 mi West 5.8 mph - N/A   Clear
6:56 AM 48.9 °F 33.1 °F 54% 30.09 in 10.0 mi Calm Calm - N/A   Clear
7:56 AM 57.0 °F 36.0 °F 45% 30.12 in 10.0 mi Calm Calm - N/A   Clear
8:56 AM 63.0 °F 37.9 °F 40% 30.14 in 10.0 mi West 3.5 mph - N/A   Clear
9:56 AM 71.1 °F 39.9 °F 32% 30.14 in 10.0 mi WNW 4.6 mph - N/A   Clear
10:56 AM 75.0 °F 41.0 °F 29% 30.12 in 10.0 mi WNW 3.5 mph - N/A   Clear
11:56 AM 78.1 °F 37.9 °F 24% 30.10 in 10.0 mi Calm Calm - N/A   Clear
12:56 PM 81.0 °F 37.0 °F 21% 30.08 in 10.0 mi Calm Calm - N/A   Clear
1:56 PM 81.0 °F 36.0 °F 20% 30.06 in 10.0 mi Calm Calm - N/A   Clear
2:56 PM 81.0 °F 37.0 °F 21% 30.06 in 10.0 mi Calm Calm - N/A   Clear
3:56 PM 79.0 °F 39.0 °F 24% 30.07 in 10.0 mi Calm Calm - N/A   Clear
4:56 PM 72.0 °F 39.9 °F 31% 30.08 in 10.0 mi WSW 3.5 mph - N/A   Clear
5:56 PM 66.0 °F 37.0 °F 34% 30.09 in 10.0 mi West 3.5 mph - N/A   Clear
6:56 PM 64.9 °F 39.9 °F 40% 30.11 in 10.0 mi WSW 4.6 mph - N/A   Clear
7:56 PM 59.0 °F 35.1 °F 41% 30.13 in 10.0 mi West 3.5 mph - N/A   Clear
8:56 PM 61.0 °F 34.0 °F 36% 30.14 in 10.0 mi WSW 8.1 mph - N/A   Clear
9:56 PM 60.1 °F 34.0 °F 38% 30.14 in 10.0 mi West 8.1 mph - N/A   Clear
10:56 PM 57.0 °F 33.1 °F 40% 30.16 in 10.0 mi West 6.9 mph - N/A   Clear
11:56 PM 55.0 °F 34.0 °F 45% 30.15 in 10.0 mi West 5.8 mph - N/A   Clear